Location: North Runcton
(52.7000°N, 0.4333°E)
Time: 14:33:13
(UTC+00:00)

NOSS 3-1 (A) - Pass Details

Date: 19 May 2025
Orbit: 667 x 1541 km, 63.4° (Epoch: 14 June)

Event Time Altitude Azimuth Distance (km) Brightness Sun altitude
Exits shadow 22:37:13 - 219° (SW) 2,620 5.5 -15.4°
Reaches altitude 10° 22:38:13 10° 219° (SW) 2,225 5.1 -15.4°
Maximum altitude 22:43:15 79° 134° (SE) 837 3.0 -15.7°
Drops below altitude 10° 22:49:23 10° 48° (NE) 2,694 6.2 -15.9°
Sets 22:52:14 0° 47° (NE) 3,785 7.0 -16.1°
